Location: Unspecified
(45.3712°N, 0.6436°E)
Time: 06:14:25
(UTC+02:00)

ISS - Pass Details

Date: 20 July 2018
Orbit: 402 x 408 km, 51.6° (Epoch: 21 July)

Event Time Altitude Azimuth Distance (km) Brightness Sun altitude
Rises 00:34:54 0° 255° (WSW) 2,317 0.1 -20.9°
Reaches altitude 10° 00:37:01 10° 261° (W) 1,460 -0.9 -21.0°
Maximum altitude 00:40:13 49° 338° (NNW) 532 -2.9 -21.2°
Drops below altitude 10° 00:43:26 10° 55° (NE) 1,469 -0.8 -21.4°
Sets 00:45:34 0° 61° (ENE) 2,332 0.1 -21.6°
